This is the latest recevied weather packets stored in our database for station/object WD7OO. If no packets are shown the sender has not sent any weather packets the latest 10 day(s).
| Time | Temp. | Humidity | Pressure | Rain* | Wind** | Luminosity | Snow |
|---|---|---|---|---|---|---|---|
| 1788269793 | 25.56° C | 87% | 1016.4 hPa | 0 mm | - | 289 W/m² | - |
| 1788269491 | 25.56° C | 90% | 1016.6 hPa | 0 mm | - | 206 W/m² | - |
| 1788269186 | 25° C | 89% | 1016.4 hPa | 0 mm | - | 102 W/m² | - |
| 1788268885 | 25° C | 90% | 1016.8 hPa | 0 mm | - | 116 W/m² | - |
| 1788268580 | 25° C | 90% | 1016.8 hPa | 0 mm | - | 121 W/m² | - |
| 1788268274 | 25° C | 90% | 1016.8 hPa | 0 mm | - | 79 W/m² | - |
| 1788267970 | 25° C | 90% | 1016.8 hPa | 0 mm | - | 57 W/m² | - |
| 1788267668 | 25° C | 90% | 1016.8 hPa | 0 mm | - | 64 W/m² | - |
| 1788267366 | 24.44° C | 90% | 1016.7 hPa | 0 mm | - | 72 W/m² | - |
| 1788267061 | 24.44° C | 91% | 1016.6 hPa | 0 mm | - | 75 W/m² | - |
| 1788266756 | 25° C | 90% | 1016.4 hPa | 0 mm | - | 55 W/m² | - |
| 1788266467 | 24.44° C | 89% | 1016.3 hPa | 0 mm | - | 47 W/m² | - |
| 1788266146 | 24.44° C | 89% | 1016.3 hPa | 0 mm | - | 40 W/m² | - |
| 1788265846 | 24.44° C | 89% | 1016.5 hPa | 0 mm | - | 44 W/m² | - |
| 1788265544 | 24.44° C | 89% | 1016.5 hPa | 0 mm | - | 38 W/m² | - |
| 1788265243 | 24.44° C | 89% | 1016.6 hPa | 0 mm | - | 27 W/m² | - |
| 1788264938 | 24.44° C | 88% | 1016.5 hPa | 0 mm | - | 23 W/m² | - |
| 1788264634 | 25° C | 88% | 1016.5 hPa | 0 mm | - | 20 W/m² | - |
| 1788264333 | 25° C | 88% | 1016.3 hPa | 0 mm | - | 41 W/m² | - |
| 1788264029 | 24.44° C | 88% | 1016.4 hPa | 0 mm | - | 55 W/m² | - |
| 1788263724 | 24.44° C | 88% | 1016.5 hPa | 0 mm | - | 38 W/m² | - |
| 1788263421 | 24.44° C | 89% | 1016.4 hPa | 0 mm | - | 29 W/m² | - |
| 1788263117 | 24.44° C | 89% | 1016.2 hPa | 0 mm | - | 21 W/m² | - |
| 1788262815 | 24.44° C | 89% | 1016.3 hPa | 0 mm | - | 15 W/m² | - |
| 1788262514 | 24.44° C | 89% | 1016.4 hPa | 0 mm | - | 13 W/m² | - |
* Rain latest hour (hover to see other rain measurements)
** Current wind speed in m/s (hover to see current wind gust speed)